GFSSE_sfc_temp_003.txt.gz
Temp
74 78 83 83 83 83 83 83 83 83 82 82 82 82 82 83 82 82 82 82 82 82 82 82 82 83 82 83 83 82 82 81 81 81 80 80 80 81 82 81 80 80 81
80 80 82 83 83 83 83 83 83 82 82 82 82 83 83 83 82 82 82 82 82 82 82 82 82 82 82 82 82 82 82 81 81 81 80 79 78 81 82 80 80 80 81
81 81 82 82 83 83 83 83 83 82 82 82 82 82 83 82 82 82 82 82 82 82 82 82 82 82 82 81 81 81 81 81 81 80 80 76 77 81 81 79 80 81 80
81 81 81 82 82 83 83 83 82 82 82 82 82 82 82 82 82 82 82 82 82 82 82 81 81 81 82 81 81 80 81 81 81 80 78 78 80 81 81 80 80 80 80
78 80 81 82 82 82 82 82 82 82 82 82 82 82 83 82 82 82 82 81 81 81 81 81 81 81 81 81 81 81 80 80 80 79 76 75 77 80 81 81 81 80 80
75 77 81 82 82 81 82 82 82 82 82 82 82 82 82 82 82 82 82 81 80 80 80 80 80 81 81 81 80 80 80 80 79 75 75 77 75 81 81 79 79 79 79
75 78 80 82 82 82 82 82 82 81 81 81 81 81 82 82 82 81 81 81 81 81 80 80 80 81 81 81 81 80 80 78 74 72 73 76 76 81 80 79 79 79 79
77 79 80 81 81 81 82 82 82 82 81 81 81 81 82 82 82 81 81 81 81 80 80 80 80 80 80 80 80 80 78 75 73 70 71 73 78 80 80 79 79 79 79
77 76 75 76 79 80 80 81 81 82 82 81 80 80 80 80 80 80 80 80 81 80 81 80 80 80 79 79 79 79 76 72 69 69 74 71 78 81 81 79 78 78 79
74 74 71 72 74 72 73 81 81 81 80 79 79 78 78 76 77 78 78 79 80 80 80 80 80 79 78 78 78 78 76 73 69 69 69 70 75 80 81 79 78 78 79
73 69 69 69 68 70 72 76 75 78 78 76 74 76 70 67 67 69 75 77 79 79 79 79 79 78 77 77 77 77 76 68 67 67 68 73 75 78 81 79 78 78 79
65 67 67 66 67 67 76 66 65 70 65 66 66 65 64 63 67 70 70 74 75 77 76 76 76 76 75 68 69 73 70 68 67 69 71 73 75 76 80 79 78 78 78
62 66 68 64 65 65 64 62 61 61 61 62 63 62 61 63 61 61 60 61 62 70 66 68 67 68 67 66 67 67 69 69 68 68 72 73 74 76 79 79 78 78 78
64 63 66 66 64 62 61 60 60 60 60 60 61 61 58 57 58 58 58 59 59 60 60 60 61 64 65 65 66 66 67 67 68 70 70 73 75 76 79 80 78 78 78
63 63 64 62 60 60 60 59 59 59 58 59 59 60 58 56 56 57 57 58 58 59 59 59 59 61 62 64 65 63 68 67 69 70 71 73 75 76 79 80 80 78 78
61 62 63 63 59 60 58 59 58 58 58 58 58 58 60 57 56 56 56 57 57 57 58 58 57 58 60 60 64 65 63 67 68 69 69 69 74 75 78 80 80 78 78
60 61 62 62 61 58 59 59 57 58 59 57 57 59 60 58 57 56 55 55 56 57 58 57 57 57 57 61 59 63 64 61 66 68 68 68 70 73 75 78 79 79 78
61 60 61 68 61 58 58 57 58 57 56 56 56 56 59 59 58 55 55 55 56 56 56 55 55 54 54 53 55 58 61 64 63 66 68 68 69 71 72 75 77 78 78
60 58 59 60 60 59 58 57 57 57 56 55 55 55 58 58 59 55 54 54 55 54 53 54 54 52 52 53 58 59 60 61 62 65 65 68 69 70 68 72 75 75 77
61 59 58 58 59 58 55 55 54 54 54 54 54 55 58 56 58 55 54 54 55 53 52 52 52 52 52 52 59 58 54 57 60 59 59 64 66 69 69 69 70 74 75
59 58 57 58 56 55 53 52 51 51 51 52 54 57 57 56 57 55 53 53 53 52 52 52 51 50 49 51 49 52 51 56 53 58 56 56 59 66 68 68 69 71 73
58 58 57 58 57 55 53 52 51 50 51 52 53 55 56 56 57 56 54 53 53 51 51 51 50 47 48 50 47 49 44 49 51 55 57 57 56 59 60 68 68 70 72
56 57 56 56 57 55 55 53 52 51 50 50 51 52 54 56 56 55 54 53 52 50 49 49 49 48 45 47 48 45 42 41 47 52 53 55 56 58 59 61 68 68 70
57 56 58 57 56 56 55 52 50 48 47 48 49 50 52 55 55 55 55 53 51 50 49 49 54 49 46 44 46 52 46 45 42 41 50 51 53 58 57 58 59 66 67
59 56 56 56 56 56 53 52 50 48 48 49 49 51 51 52 54 55 54 53 51 50 49 49 49 48 47 46 45 45 44 43 43 42 40 45 50 55 56 57 56 55 66
59 57 55 55 55 55 53 52 51 49 49 48 48 48 48 49 50 53 54 52 51 50 50 49 49 48 47 46 46 44 44 44 44 42 42 42 43 48 53 54 55 56 57

GFSSE_sfc_temp_006.txt.gz
Temp
74 76 82 83 83 83 83 83 82 82 82 82 82 82 82 82 82 82 82 82 81 82 82 82 82 82 82 82 82 82 82 82 82 81 81 81 81 82 81 81 80 79 81
79 79 82 83 83 83 83 83 82 82 82 82 82 82 82 82 82 82 82 82 82 82 81 82 82 82 82 82 82 82 81 82 81 81 80 79 79 81 81 80 80 80 81
79 80 81 82 83 83 83 83 82 82 82 82 82 82 82 82 82 82 82 82 82 82 81 81 81 81 81 81 81 81 81 81 81 80 79 75 76 81 81 80 81 81 81
79 79 79 82 82 83 83 82 82 82 82 82 82 82 82 82 82 82 81 81 81 81 81 81 81 81 81 81 81 81 81 81 81 80 76 76 79 81 81 80 81 81 81
76 78 80 82 82 82 81 82 82 82 82 82 82 82 83 82 82 82 81 81 81 80 80 80 80 80 81 81 80 79 80 81 80 78 74 74 74 80 81 81 81 81 80
74 76 80 82 82 81 82 82 82 82 81 81 81 82 82 82 82 82 82 81 81 80 80 80 80 80 80 80 80 80 80 80 78 73 73 74 74 81 81 81 79 79 80
73 76 79 82 82 82 82 82 82 81 81 81 81 81 81 81 81 81 81 81 81 80 80 80 80 80 80 80 80 80 79 78 73 71 72 73 74 81 81 80 79 79 79
74 76 78 81 81 81 82 82 82 81 80 80 80 79 79 79 79 79 80 80 80 80 80 80 80 79 79 79 79 80 79 77 73 71 71 72 75 80 81 79 79 79 79
74 73 73 74 78 80 80 81 81 80 79 79 78 77 76 77 77 77 78 79 79 79 79 80 80 79 79 78 78 79 76 73 69 69 72 71 78 80 81 79 79 79 79
70 71 69 69 69 69 68 79 79 79 78 77 76 75 73 72 74 74 75 77 78 78 78 77 77 78 78 78 78 78 77 74 69 68 68 69 75 80 80 79 79 79 79
69 66 66 66 65 67 68 72 72 75 75 73 70 72 65 61 62 64 72 74 75 75 75 75 75 75 74 73 74 76 76 71 69 67 66 71 75 78 80 78 79 78 79
63 64 63 62 63 64 72 61 61 65 61 61 61 60 59 58 63 66 67 71 72 72 72 72 72 71 69 62 64 69 68 68 67 67 70 72 74 77 78 79 78 78 78
63 64 64 61 62 62 61 58 57 57 58 58 59 58 57 59 57 57 56 57 57 66 62 63 62 63 61 60 61 60 66 67 67 67 70 73 74 76 77 78 77 78 78
63 63 63 63 61 59 58 57 57 57 56 56 57 57 55 54 54 54 54 55 55 56 56 56 56 59 60 60 58 59 60 63 67 68 71 72 74 76 77 78 78 77 78
61 62 62 60 57 57 57 56 56 56 56 56 56 57 55 54 53 54 54 54 54 55 55 55 55 56 57 58 59 57 58 58 61 64 68 72 75 76 77 78 79 78 78
60 60 60 60 56 57 55 55 55 55 55 55 54 56 57 54 53 53 53 54 54 54 55 54 54 53 53 55 57 58 55 57 60 61 63 65 72 74 77 77 78 80 79
59 60 59 59 58 56 56 55 54 56 56 54 54 56 57 56 54 53 53 53 52 54 55 54 54 54 53 56 53 57 58 56 58 59 62 64 66 71 73 74 77 78 79
59 57 58 66 58 56 55 54 55 55 54 53 54 54 57 57 55 54 53 53 53 54 53 53 52 51 51 50 50 52 54 56 57 59 60 61 62 65 68 71 74 77 79
59 57 57 57 57 56 54 54 54 54 53 53 53 53 56 57 57 53 52 52 53 52 52 52 52 50 50 50 54 53 51 54 57 58 55 58 59 58 61 66 71 73 75
57 56 56 56 55 55 53 52 51 52 51 52 52 53 56 55 56 53 52 52 52 51 50 50 49 50 49 49 56 53 49 50 51 55 51 57 56 57 57 59 61 68 73
56 54 54 54 54 53 50 49 49 49 50 50 51 54 55 54 55 53 51 51 51 50 50 50 49 48 47 48 45 48 46 47 49 49 56 55 55 56 55 59 60 63 69
57 56 53 56 54 53 51 50 50 49 49 51 51 52 54 54 54 55 51 50 50 49 49 49 48 45 45 46 44 42 40 47 46 52 48 52 53 52 54 57 60 61 59
58 56 56 55 55 53 53 50 49 49 48 48 49 50 52 54 54 53 52 50 49 48 47 47 47 46 43 45 46 43 38 37 46 47 49 51 49 52 51 54 58 59 58
60 58 57 56 55 54 52 50 49 47 46 47 48 49 51 52 53 53 53 51 49 48 47 47 51 46 44 43 43 48 43 43 40 41 50 50 51 51 51 52 55 57 56
60 58 58 55 55 54 52 50 48 46 47 47 47 48 48 50 51 53 52 50 49 47 47 47 47 46 44 43 42 42 41 42 41 39 39 45 50 51 51 51 52 55 55
59 58 55 54 55 53 52 50 49 48 47 46 46 46 47 47 48 50 52 50 49 47 48 48 47 46 45 44 43 42 42 42 43 40 41 43 44 48 50 51 50 53 54

GFSSE_sfc_temp_009.txt.gz
Temp
72 75 82 83 82 82 82 82 82 82 82 82 82 82 82 82 82 82 81 81 81 81 81 82 82 82 82 82 82 82 82 82 82 82 81 81 81 81 81 80 80 79 81
77 78 82 82 83 83 82 82 82 82 82 82 82 83 82 82 81 81 81 81 81 81 81 81 81 82 82 82 81 81 82 82 81 81 80 79 79 81 81 80 80 79 81
77 79 80 82 82 83 82 82 82 82 82 82 82 82 82 82 82 81 81 81 81 81 81 81 81 81 81 81 81 81 81 81 81 80 79 75 76 81 81 80 80 81 81
79 77 78 82 82 82 82 82 82 82 82 82 82 82 82 82 82 81 81 81 81 81 80 80 80 81 81 80 80 81 81 81 80 80 75 75 78 81 81 81 81 81 81
75 77 79 82 82 82 82 82 82 82 82 82 82 82 82 82 82 82 81 81 80 80 80 80 80 80 80 80 80 80 81 81 80 77 73 73 72 79 81 81 81 81 81
73 75 79 82 82 82 82 81 81 81 81 81 81 82 81 81 81 81 81 81 80 80 80 80 79 79 80 80 80 80 80 80 77 72 72 73 73 79 81 81 80 79 80
72 75 78 82 82 81 81 81 81 80 80 80 80 79 80 79 79 80 80 80 80 80 80 80 79 79 79 79 80 80 79 78 72 70 71 72 73 79 81 81 78 79 80
73 75 78 81 81 81 81 81 80 80 79 78 78 77 78 77 78 78 79 79 79 78 78 79 79 79 79 78 79 79 79 77 72 71 70 70 74 78 80 79 79 79 79
73 73 73 74 78 80 80 80 79 79 78 77 76 75 75 75 75 76 77 78 77 77 77 76 77 76 76 76 78 78 76 74 68 69 72 69 74 80 79 78 77 79 79
70 69 67 66 68 67 68 79 78 77 76 75 74 73 71 70 71 73 73 75 75 75 75 75 75 74 74 74 75 75 77 75 69 68 68 68 75 77 80 79 78 78 79
68 65 64 64 63 63 65 72 73 75 73 71 68 70 63 58 60 61 71 73 73 73 73 73 73 72 71 69 71 72 71 69 70 67 68 71 74 76 78 79 78 78 79
62 63 62 61 62 62 69 58 59 63 58 58 58 56 56 55 60 62 66 69 71 69 70 70 70 69 65 59 58 64 61 64 67 68 67 72 74 76 77 78 79 77 78
62 62 62 59 61 61 59 56 55 55 55 56 56 55 55 56 54 54 54 54 54 63 58 59 58 59 58 57 57 56 58 59 61 66 71 72 74 76 77 78 77 78 77
61 61 62 61 60 58 56 55 55 55 54 54 55 55 53 52 52 52 52 53 53 53 54 53 53 55 55 56 53 53 53 55 59 62 65 70 73 74 77 78 78 78 77
60 60 60 59 57 56 56 54 54 54 53 54 54 55 53 52 51 52 52 52 52 53 52 52 52 53 52 54 53 52 52 52 53 57 58 67 70 71 74 76 77 78 78
61 60 59 59 55 56 54 54 53 53 53 53 53 54 55 52 52 52 51 52 52 51 52 52 51 51 51 51 53 53 52 51 53 54 58 56 66 68 69 71 73 75 77
59 59 58 57 56 54 54 53 52 53 53 52 53 54 55 54 52 52 51 51 50 51 53 52 52 51 50 53 49 52 53 51 52 52 55 58 57 63 65 66 69 71 73
59 57 56 64 56 54 53 52 53 52 51 51 52 52 55 55 54 52 51 51 51 51 51 51 50 50 49 48 47 49 49 50 51 52 53 54 55 57 59 63 66 68 69
60 56 56 56 55 54 52 52 51 52 51 51 51 52 54 55 55 52 51 50 51 50 50 50 50 48 48 48 51 50 49 48 48 54 49 52 52 52 54 59 63 64 67
58 58 57 55 54 52 51 49 49 49 50 50 50 52 54 53 54 51 50 50 50 50 49 49 48 48 47 47 53 51 47 47 48 48 50 55 53 53 50 53 55 58 65
55 54 56 54 52 52 48 47 47 48 48 49 50 53 53 53 53 51 50 50 50 49 48 48 47 46 46 45 43 45 43 45 44 47 48 48 51 54 49 51 53 56 59
57 57 56 56 53 53 52 48 49 48 48 49 50 51 52 52 53 52 50 49 49 48 48 47 46 44 44 44 42 39 38 41 42 51 45 48 46 49 52 53 50 53 56
58 57 57 57 55 54 52 48 46 47 47 47 48 48 50 52 52 52 50 49 48 47 46 46 45 44 42 43 44 42 37 34 45 43 46 46 46 46 47 47 50 52 53
60 60 59 57 56 55 52 49 48 46 46 46 47 48 49 51 51 52 51 50 48 46 45 45 49 45 42 41 42 46 42 40 37 38 44 46 46 48 48 49 51 51 51
62 59 59 57 56 56 53 52 49 46 46 46 46 47 47 48 50 51 51 49 48 46 46 46 45 44 43 42 40 40 39 39 38 38 38 45 49 48 50 51 51 50 49
61 58 57 55 55 54 52 50 49 48 46 45 44 45 45 46 47 49 51 49 48 46 46 46 46 44 44 42 42 40 40 38 39 37 36 43 43 47 49 50 50 51 50

GFSSE_sfc_temp_012.txt.gz
Temp
72 74 82 82 82 82 82 82 82 82 82 82 82 82 82 82 81 81 81 81 81 81 81 82 82 82 82 82 82 82 82 82 82 81 81 81 81 81 81 81 80 79 81
75 76 82 82 82 82 82 82 82 82 82 82 81 82 82 82 81 81 81 81 81 81 81 81 81 81 82 82 81 81 82 82 81 80 79 79 79 81 81 80 80 80 81
76 77 79 82 82 82 82 82 82 82 82 82 82 82 82 82 82 81 81 81 81 81 81 81 81 81 81 81 81 81 81 81 81 80 79 75 77 80 81 80 80 82 81
77 76 77 82 82 82 82 82 82 82 82 82 82 82 82 82 81 81 81 81 81 80 80 80 80 80 81 80 81 81 81 81 80 79 75 76 77 81 81 80 81 81 81
74 75 77 82 82 82 82 82 82 81 81 81 82 82 81 81 81 81 81 80 80 80 80 79 80 80 80 80 80 81 81 80 79 76 74 74 73 78 80 81 81 81 81
73 74 79 81 82 81 82 81 81 80 80 81 81 80 81 80 80 81 80 80 80 80 80 79 79 79 79 80 80 80 80 80 76 72 72 74 74 77 81 80 79 80 79
72 74 77 82 82 81 81 81 80 80 79 79 79 79 78 79 79 79 79 79 79 78 79 79 79 79 79 79 79 80 79 77 71 70 71 72 73 78 80 80 79 79 79
72 74 77 81 81 81 81 80 80 79 78 77 77 77 77 77 77 78 78 78 78 77 76 77 76 77 76 77 78 78 78 76 72 70 70 70 75 78 81 79 79 78 78
72 72 73 74 78 80 80 79 79 78 77 76 75 75 75 75 75 76 76 76 76 76 75 75 75 75 75 75 75 76 76 74 69 69 72 70 75 78 79 80 79 78 78
71 70 68 67 68 68 70 78 77 77 76 75 74 72 71 71 72 74 73 74 74 74 74 74 74 73 73 73 74 73 71 72 69 68 68 69 75 77 78 78 79 79 77
69 66 64 63 62 63 65 72 74 75 73 71 69 69 62 56 58 61 71 73 73 72 72 72 71 71 68 68 70 70 67 63 67 68 69 73 75 76 78 78 78 78 78
62 62 61 60 61 61 67 57 57 61 56 56 55 54 54 54 59 62 66 69 70 69 69 69 68 66 62 57 58 61 57 58 61 63 69 73 75 76 77 77 78 78 78
63 62 61 59 59 60 58 54 53 53 53 54 54 53 53 54 53 53 52 52 52 61 55 57 55 56 55 55 55 54 55 55 55 59 65 71 72 74 75 76 77 77 78
60 62 61 60 59 57 55 54 53 53 52 52 53 54 52 51 51 51 51 51 51 51 51 51 51 52 53 53 50 51 50 53 55 57 60 68 70 71 72 73 74 75 76
61 61 60 58 57 55 55 53 53 53 52 52 52 53 52 51 50 51 50 50 50 51 51 50 50 50 50 52 52 50 50 49 50 53 54 65 67 68 70 71 72 72 73
63 61 59 58 55 55 53 53 52 52 52 52 51 52 53 51 50 51 50 50 50 50 50 50 49 49 49 49 50 51 49 49 50 50 53 53 64 65 67 68 69 71 71
60 61 58 57 55 54 53 53 51 51 52 51 51 53 53 52 51 50 50 49 49 50 51 51 50 49 49 51 47 49 50 48 50 50 52 53 53 60 63 65 67 68 69
61 57 58 63 56 53 52 51 51 51 50 50 50 51 53 53 52 50 50 49 50 50 50 49 48 48 48 47 46 47 47 48 48 49 50 51 51 53 56 62 64 65 67
63 59 57 56 55 53 51 50 50 50 49 49 49 50 52 53 53 50 49 49 50 49 48 49 48 47 47 47 50 48 47 46 46 52 48 50 51 51 51 57 60 61 64
61 59 59 56 55 52 49 48 47 48 48 48 49 50 52 52 52 50 49 49 49 49 48 47 47 47 46 45 51 49 45 44 46 46 48 52 50 51 49 51 50 53 61
55 56 57 55 53 52 48 48 45 46 46 46 48 51 51 51 52 50 48 49 48 48 47 47 46 45 45 43 43 44 42 43 43 45 46 47 48 50 48 50 50 51 53
57 58 58 58 54 54 55 46 48 46 46 48 48 49 51 51 51 50 49 48 48 47 46 46 45 43 43 43 42 38 37 40 42 46 48 47 46 47 49 52 49 49 50
59 57 58 58 55 55 53 48 45 46 45 46 46 47 49 50 50 50 49 47 47 46 46 45 44 44 42 42 42 41 36 34 39 41 44 44 45 45 46 47 49 50 50
61 60 60 59 56 55 52 52 48 47 44 45 46 47 48 50 50 50 49 48 47 45 45 45 47 43 42 41 41 45 40 39 36 35 41 44 45 46 46 46 48 49 49
63 59 60 58 56 56 53 54 52 45 46 45 45 47 46 47 49 49 49 48 46 45 45 45 44 43 41 41 40 40 38 38 37 36 38 41 48 46 46 46 47 48 49
62 60 58 56 56 56 54 53 53 50 46 44 43 45 44 45 46 48 49 47 47 45 45 45 45 43 42 40 40 39 39 38 38 36 34 42 42 47 46 46 46 49 50

GFSSE_sfc_temp_015.txt.gz
Temp
79 82 82 82 82 82 82 82 82 82 82 82 82 82 82 82 82 82 82 82 81 81 81 82 82 82 82 82 82 82 82 82 82 81 81 81 81 82 81 81 81 85 81
83 83 82 82 82 82 82 83 82 82 82 82 82 82 82 82 81 81 81 81 81 81 81 81 81 82 82 82 82 82 82 82 81 80 80 79 79 80 81 81 81 84 82
82 83 84 82 82 83 83 82 82 82 82 81 82 82 81 81 81 81 81 81 81 81 81 81 81 81 81 81 81 81 81 81 80 80 78 84 84 80 80 80 81 81 81
83 84 84 82 82 82 82 82 82 82 82 82 82 82 81 81 81 81 81 81 81 80 80 80 80 81 81 81 81 81 81 81 79 78 84 84 84 81 81 80 80 82 81
82 83 83 82 82 82 82 82 82 81 81 82 81 81 81 81 81 81 80 80 80 80 80 79 79 80 80 80 80 81 81 80 78 81 83 83 83 82 80 80 80 81 81
82 83 82 81 81 81 82 81 80 81 81 81 80 80 80 80 80 80 80 80 79 79 79 79 78 79 79 79 80 80 80 78 78 82 81 81 83 80 81 79 79 79 80
81 82 84 82 81 81 81 80 80 81 79 79 79 79 78 79 79 79 79 78 78 78 78 77 77 78 78 78 79 80 79 77 82 81 81 81 81 78 81 80 80 79 78
81 81 84 82 81 81 81 80 79 79 78 78 77 77 77 77 78 77 78 77 77 77 76 76 76 76 76 76 77 79 77 76 80 80 80 79 77 79 80 81 80 79 79
81 81 83 84 82 80 80 79 79 78 77 77 76 76 76 76 76 76 76 76 76 76 75 75 75 74 75 75 74 74 75 74 78 78 79 78 76 78 79 79 80 79 79
79 80 81 82 83 82 82 78 78 77 76 75 74 73 73 73 74 74 74 75 74 74 74 73 73 72 72 72 72 71 70 70 76 76 76 77 76 78 79 79 78 79 79
76 77 79 79 80 80 80 79 77 76 75 73 72 70 69 71 72 74 73 73 73 72 72 71 70 69 68 69 69 69 70 68 72 74 75 73 76 78 78 78 78 78 78
73 71 77 77 77 78 76 75 74 72 71 71 70 69 70 70 71 72 71 70 70 70 69 69 68 67 68 70 70 68 70 70 71 73 74 72 74 76 75 75 76 77 78
74 72 74 75 75 74 72 71 71 70 69 69 69 69 69 68 67 68 66 67 67 66 67 68 68 68 66 67 68 68 68 70 70 71 71 70 71 73 74 74 74 74 75
72 72 73 74 72 72 70 70 69 69 69 69 68 68 68 67 67 67 66 66 65 66 66 66 66 66 66 66 68 68 68 68 68 69 68 68 69 70 72 72 73 73 74
71 72 72 72 73 72 70 68 68 68 69 68 67 67 67 66 66 66 66 66 65 66 66 66 66 66 66 67 67 67 67 66 66 67 67 65 67 68 70 71 72 72 72
73 73 73 71 73 71 69 67 67 67 67 66 65 66 66 66 66 65 65 64 65 66 66 66 65 65 65 67 65 65 65 65 66 65 66 65 64 65 67 68 69 70 71
73 74 71 70 70 70 70 67 65 65 65 65 65 66 65 65 66 65 65 65 65 66 66 66 65 66 65 65 65 65 64 64 64 65 65 65 65 62 63 65 66 67 68
74 71 71 70 68 69 67 66 66 65 65 65 65 65 65 64 65 64 64 64 64 64 64 64 64 63 63 64 65 65 64 65 64 65 64 64 64 64 63 62 63 64 66
73 71 69 69 68 67 67 65 65 65 64 64 65 65 64 64 63 64 64 63 63 63 64 64 62 63 62 62 63 64 64 64 64 65 64 63 62 62 63 61 60 61 63
72 72 70 69 69 67 65 64 63 62 63 63 64 64 65 63 62 63 62 62 63 62 62 62 62 62 61 60 62 62 63 63 63 63 62 65 64 62 63 62 62 63 61
70 70 69 67 67 64 61 60 60 60 60 60 62 64 63 62 62 62 62 62 61 62 61 61 61 60 60 60 59 60 61 62 62 62 64 64 63 63 63 62 63 62 63
70 69 69 67 65 64 64 64 65 64 61 62 60 61 61 61 62 62 62 61 61 60 59 59 59 58 59 59 57 55 53 58 61 63 63 62 62 62 62 63 63 63 62
68 66 68 68 66 65 64 61 57 59 57 58 58 59 59 61 61 63 62 61 61 60 59 58 58 57 57 58 57 57 53 51 53 59 61 61 61 61 62 62 63 63 63
66 67 68 68 67 65 63 60 59 60 59 60 61 59 59 61 61 61 61 61 61 60 59 58 58 58 57 56 57 57 56 55 51 49 58 59 61 60 61 61 62 62 63
70 68 67 67 66 65 61 62 60 62 63 60 58 58 60 60 61 60 61 60 60 59 60 59 58 57 57 57 56 56 53 54 52 47 47 53 58 60 61 60 61 62 62
68 67 64 65 64 63 60 61 60 60 59 57 58 58 58 58 58 60 59 60 60 59 58 58 58 57 57 56 56 55 53 52 53 51 49 52 52 56 60 61 60 60 61

GFSSE_sfc_temp_018.txt.gz
Temp
87 89 82 82 82 82 82 82 82 83 83 83 82 82 82 82 82 82 82 82 81 81 82 82 82 82 82 82 82 82 82 82 82 81 81 81 81 82 82 81 81 87 82
91 91 82 82 82 82 83 83 83 83 82 82 82 82 82 82 82 81 81 81 81 81 81 81 82 82 82 82 82 82 82 81 81 80 80 80 80 81 81 81 82 85 82
90 92 89 82 82 83 83 82 82 82 81 82 82 82 82 81 81 81 81 81 81 81 81 81 81 81 81 81 81 82 81 81 80 80 80 90 87 81 81 80 81 81 82
92 93 92 82 82 83 82 82 82 82 82 81 81 81 81 81 81 81 81 80 81 80 80 80 80 81 81 81 81 81 81 80 79 80 90 91 91 81 81 81 80 81 81
92 92 90 82 82 82 82 82 82 82 82 81 81 80 81 81 80 80 80 80 80 80 79 79 79 80 80 80 81 81 81 79 79 85 88 87 87 83 82 81 81 80 81
92 92 84 82 82 82 82 82 81 81 81 80 80 80 80 80 80 79 79 79 79 79 78 78 78 79 79 79 80 81 79 79 81 88 87 85 85 80 81 81 80 79 80
92 92 90 82 81 82 81 81 81 80 80 79 79 79 79 80 79 79 78 78 77 77 77 77 77 78 78 78 80 79 78 78 87 86 86 85 82 79 81 81 80 80 79
92 91 91 82 81 81 81 80 80 79 79 78 78 78 78 78 78 78 77 77 76 76 76 76 76 76 76 77 78 78 76 78 85 84 82 83 77 79 80 80 80 80 80
93 91 92 89 84 80 80 79 79 78 78 77 77 77 77 77 77 76 76 76 76 75 75 74 74 74 74 74 74 75 75 76 84 82 84 79 77 79 80 79 79 79 79
91 91 93 92 88 87 86 79 78 78 77 76 76 75 75 75 75 75 75 75 75 74 73 73 72 72 72 72 72 72 72 75 83 83 83 77 77 79 79 79 79 79 79
88 91 93 92 91 90 89 83 78 77 76 74 74 72 74 82 80 79 73 73 73 72 72 71 71 71 72 71 71 73 76 81 83 83 82 74 76 77 76 77 77 78 79
84 88 91 91 90 90 88 86 87 84 84 84 82 81 83 81 81 79 73 71 71 70 70 70 70 72 76 80 80 76 81 80 81 81 78 72 74 75 75 75 75 75 76
87 86 87 90 89 88 86 86 86 84 83 83 82 82 82 79 78 79 76 77 76 72 79 77 77 77 76 77 77 78 78 80 82 80 72 70 71 73 74 74 74 74 75
87 86 84 88 87 87 85 84 85 84 83 83 81 82 80 79 79 79 79 76 76 78 76 77 77 75 75 76 79 78 78 79 80 80 72 68 69 71 72 73 73 73 74
87 86 84 86 87 87 84 84 84 84 83 83 81 80 81 78 78 78 77 77 76 77 78 77 77 77 76 76 76 77 77 76 77 77 75 65 67 68 70 71 71 71 72
89 87 86 85 87 87 84 83 82 82 82 80 79 79 79 79 78 77 76 75 76 77 78 78 77 77 76 77 74 74 75 76 75 74 76 72 64 65 67 68 69 69 70
90 88 87 85 86 86 84 82 81 80 79 78 78 78 78 77 78 77 76 76 76 77 76 77 76 77 76 76 75 76 75 75 75 74 74 73 73 65 64 65 66 67 68
91 88 87 84 84 85 84 82 81 80 79 78 79 78 77 75 77 76 75 74 75 74 74 74 74 73 74 75 76 75 76 74 74 74 72 71 70 71 69 63 64 64 66
89 89 87 85 82 83 84 82 81 80 78 79 79 77 75 74 75 75 74 73 73 72 73 72 72 73 72 72 72 74 74 73 72 73 72 70 70 69 69 66 64 63 64
89 89 88 86 82 83 82 81 79 78 77 78 78 77 76 73 73 74 73 72 72 70 70 70 70 71 71 71 70 71 73 72 71 71 72 72 72 68 68 67 68 70 64
87 87 86 84 82 83 78 76 75 73 74 75 75 76 75 74 72 72 71 71 70 69 70 70 69 67 69 70 68 70 71 71 71 71 73 72 71 70 69 69 69 70 70
86 86 86 84 82 82 78 78 77 76 76 75 73 73 73 73 72 71 70 69 70 69 68 67 66 66 68 69 66 65 65 67 71 71 72 71 70 70 70 70 70 70 69
83 84 84 84 82 81 78 77 76 77 74 71 70 70 71 72 71 71 71 71 70 69 67 67 66 64 65 66 66 65 62 62 63 70 69 69 68 69 70 69 69 69 70
82 82 84 83 83 80 77 75 72 70 66 69 70 70 70 71 70 70 71 71 70 69 68 67 67 66 64 63 65 66 67 64 59 58 68 67 69 68 68 68 69 69 69
79 80 81 81 81 80 78 74 71 70 72 73 72 69 69 69 71 70 71 70 69 69 69 68 66 66 65 65 63 64 62 63 62 57 54 60 65 68 69 68 68 68 68
76 75 77 77 77 79 76 74 70 70 73 74 71 68 68 68 69 69 69 69 69 68 67 66 66 66 65 65 64 63 61 59 60 59 57 59 59 62 66 67 67 67 67

GFSSE_sfc_temp_021.txt.gz
Temp
89 89 82 82 82 82 82 82 83 83 83 82 82 82 82 82 82 82 82 82 82 82 82 82 82 83 82 82 82 82 82 82 81 81 81 81 82 82 82 82 83 85 82
93 92 82 82 83 83 83 83 83 83 82 82 82 82 82 82 82 81 81 81 81 81 81 82 82 82 82 82 82 82 82 81 81 81 81 80 80 81 82 81 83 83 82
93 93 88 82 82 83 82 82 82 82 81 81 81 82 81 81 81 81 81 81 81 81 81 81 81 81 81 81 82 82 81 81 81 81 81 87 84 82 82 82 81 81 82
95 95 92 82 82 83 82 82 82 82 81 81 81 81 81 81 80 80 80 80 80 80 80 80 81 81 81 81 81 81 81 80 80 81 84 88 86 81 82 82 82 80 81
95 95 88 82 82 82 82 82 81 81 81 81 80 81 81 80 80 80 79 80 80 78 79 79 80 80 80 80 81 81 80 80 81 85 83 83 81 83 82 82 81 81 81
95 95 83 82 82 81 81 81 81 81 80 81 80 80 80 80 79 79 79 79 78 78 78 78 78 79 79 80 81 80 80 80 79 83 82 82 82 81 81 81 81 81 80
95 95 90 82 82 81 81 81 81 81 80 79 79 79 80 79 79 78 78 77 77 77 77 77 77 78 78 79 80 79 79 79 83 82 82 79 80 80 81 81 80 80 80
95 94 91 82 81 81 81 81 80 80 79 79 78 78 79 78 78 77 77 77 76 76 76 76 76 76 76 77 78 77 78 78 83 81 78 80 78 80 80 80 80 80 80
97 94 94 90 83 80 80 80 80 79 78 78 78 77 78 77 77 76 76 76 76 75 75 74 75 74 74 74 75 76 76 78 81 80 81 79 78 79 80 79 79 79 79
96 95 96 92 85 86 84 79 79 78 78 77 77 76 76 76 75 75 75 75 74 74 73 73 73 73 73 73 74 74 74 77 81 83 78 75 77 78 78 78 78 79 79
94 95 96 95 90 90 89 83 79 78 77 76 75 75 75 83 81 79 73 73 73 72 72 72 72 73 73 73 74 75 76 83 84 83 77 74 76 77 77 76 77 77 78
92 93 96 96 94 92 91 86 85 83 82 82 82 79 86 84 82 79 74 72 72 71 71 72 72 74 77 82 81 78 82 82 82 81 74 72 74 75 75 75 75 75 76
93 92 94 96 95 92 90 88 88 87 87 87 87 86 86 82 78 81 75 76 75 73 79 78 79 78 78 79 79 80 80 81 82 79 71 70 71 73 74 74 74 74 74
93 91 92 94 93 93 91 88 90 88 87 86 85 86 84 82 81 81 81 78 77 79 78 78 78 77 77 79 81 81 80 80 81 79 68 68 70 71 72 72 72 73 73
93 92 92 92 94 92 90 88 88 87 87 87 85 85 84 82 81 81 80 79 78 78 79 78 78 78 78 78 78 79 79 78 78 77 71 66 67 69 70 70 71 71 72
95 94 93 90 92 93 90 88 86 86 86 86 84 83 84 83 82 80 79 78 78 79 79 79 78 77 77 78 76 76 76 77 76 75 75 67 66 66 67 68 69 69 70
97 96 95 91 91 92 90 88 85 85 85 84 82 82 82 82 82 80 79 78 79 79 79 78 78 77 75 76 75 76 75 75 75 75 74 73 69 65 65 66 66 67 68
97 96 96 92 90 90 89 88 86 85 83 83 82 81 81 80 81 80 78 77 78 77 75 75 74 73 74 74 75 75 75 74 74 74 72 71 70 70 69 66 65 65 66
97 96 95 93 90 88 89 89 87 85 83 82 82 81 80 78 79 78 77 77 76 74 74 73 73 73 72 72 72 74 75 74 74 75 73 71 70 69 68 68 67 66 66
97 96 95 95 92 89 88 88 86 84 83 83 82 81 80 77 77 77 76 75 75 72 72 71 72 72 71 71 72 73 74 73 72 72 73 74 72 70 68 68 67 69 68
95 94 94 92 93 89 85 84 82 79 80 80 80 81 79 77 75 75 74 74 73 71 71 71 71 69 68 70 67 70 71 73 73 72 72 73 72 71 70 69 69 69 69
92 92 92 92 91 90 85 84 84 82 81 79 78 78 78 77 75 74 73 72 71 70 70 69 68 67 68 69 66 65 63 67 70 72 72 71 71 71 70 71 71 70 68
82 82 86 88 90 90 87 84 81 82 79 76 75 74 75 76 74 74 73 73 71 70 68 67 67 65 64 67 68 65 61 61 64 70 70 70 69 69 70 70 70 69 69
78 79 80 82 86 88 88 83 78 76 74 75 74 73 73 75 75 73 74 73 72 71 69 68 69 66 65 64 65 67 67 65 59 58 68 68 70 69 68 68 69 69 69
76 76 78 78 80 84 86 83 77 75 77 77 75 72 73 73 74 72 73 72 71 70 70 69 68 66 66 65 64 64 63 63 64 58 55 60 66 68 69 68 68 68 68
75 74 76 76 76 78 80 82 78 74 74 74 73 71 71 71 71 72 72 72 71 70 69 68 68 67 66 66 66 64 62 60 60 60 57 59 59 62 66 67 67 67 66

GFSSE_sfc_temp_024.txt.gz
Temp
79 79 82 83 83 82 82 82 83 83 82 82 82 82 82 82 81 81 81 82 82 82 82 81 82 83 83 83 82 82 82 82 81 81 81 81 81 82 82 82 82 81 82
84 83 82 82 83 82 82 83 83 82 82 81 82 81 81 81 81 81 81 81 81 81 82 81 82 82 82 82 82 82 82 81 81 80 80 79 79 81 82 81 80 81 82
86 84 83 82 82 82 82 82 82 82 81 81 81 81 81 81 81 80 81 81 81 81 81 81 81 81 81 81 82 81 81 81 81 81 81 78 78 81 82 81 80 82 81
89 86 83 82 82 82 82 82 82 81 81 81 81 81 80 80 80 80 80 80 80 80 80 80 80 81 81 81 81 81 81 81 81 81 81 83 82 82 82 82 81 81 81
89 88 83 82 82 82 82 81 81 81 81 80 81 81 80 80 80 80 80 80 78 79 79 79 80 79 80 80 80 80 80 81 81 82 79 77 76 82 82 82 81 80 80
88 84 81 82 82 81 81 81 81 81 81 80 80 80 80 80 79 79 79 78 77 77 78 78 79 79 79 80 80 80 80 81 81 78 77 77 76 81 81 80 80 80 80
88 83 82 82 81 81 81 81 81 80 80 79 80 80 79 79 78 78 78 77 77 77 77 77 78 78 79 79 79 79 79 79 79 77 77 77 75 80 80 80 80 80 80
89 86 83 81 81 81 81 81 80 80 79 79 79 79 79 78 78 77 77 77 76 76 76 76 76 76 78 78 78 78 78 79 79 77 76 76 77 79 80 79 79 79 79
90 87 83 80 80 80 80 81 80 79 79 78 78 78 78 77 77 76 76 76 75 75 74 75 75 75 75 75 76 75 77 78 77 76 78 74 77 79 79 79 79 79 79
87 87 85 82 79 78 77 80 79 79 78 78 77 77 77 76 76 76 75 75 74 74 74 73 74 74 74 74 75 75 76 76 78 74 71 73 77 78 78 78 78 78 79
87 86 86 83 80 80 78 78 78 78 78 77 75 76 74 68 70 69 73 74 73 73 73 73 73 73 74 75 75 76 76 72 74 70 68 73 76 76 77 77 76 77 78
82 83 86 85 82 83 84 76 74 74 70 69 69 67 68 69 69 71 70 73 73 73 73 73 74 75 75 67 67 73 69 72 71 67 66 72 74 75 75 75 75 75 76
83 83 85 85 85 84 83 75 77 76 73 72 71 68 69 68 65 65 61 63 61 69 64 67 67 65 67 66 66 66 69 68 67 65 67 70 72 73 74 73 74 74 75
84 83 84 84 83 83 81 78 78 78 77 74 71 72 68 65 65 65 63 63 63 63 65 64 63 64 65 68 64 65 66 65 65 61 63 69 70 71 72 72 72 73 73
83 82 83 83 83 84 81 79 78 76 75 72 71 71 68 66 66 66 64 64 63 64 64 63 63 64 64 65 65 65 63 63 63 62 57 68 68 69 70 71 71 72 72
84 84 85 85 85 83 81 77 78 73 72 71 69 69 71 67 66 65 65 64 63 64 64 64 63 62 62 62 64 65 63 62 63 63 58 59 68 68 68 69 69 70 70
86 85 86 85 84 83 82 79 76 71 72 68 67 70 70 68 67 66 64 63 63 64 65 64 63 62 62 65 61 62 64 62 63 62 62 57 61 67 67 67 67 67 68
84 84 85 88 84 84 80 77 75 72 69 68 67 67 69 69 68 65 64 63 63 63 62 61 60 59 59 59 58 60 60 62 62 62 62 60 59 61 64 67 66 66 66
84 84 84 82 83 82 82 77 75 74 70 68 67 66 67 68 68 64 63 62 63 61 60 61 59 59 57 57 60 60 60 59 60 66 60 61 59 58 58 65 68 67 66
81 82 82 82 82 82 81 78 73 72 69 69 68 67 68 65 66 64 62 62 61 59 58 58 58 58 57 57 65 62 58 59 59 58 59 62 59 59 58 59 56 59 67
77 76 74 76 80 79 78 76 70 67 67 67 67 69 67 65 65 63 60 61 59 58 57 59 58 57 55 56 54 54 56 59 57 58 59 59 59 59 57 58 56 56 59
72 72 74 74 74 76 75 77 78 73 68 67 65 67 67 67 65 64 60 59 59 57 58 57 57 54 55 55 52 50 48 52 55 59 57 60 58 58 59 61 58 58 57
69 70 71 72 73 73 74 73 70 69 66 63 66 68 67 67 66 66 62 60 59 57 55 55 55 54 51 53 55 51 47 46 49 54 56 56 56 55 56 57 59 60 58
68 68 69 71 72 74 72 70 69 71 68 69 67 67 64 66 66 65 64 61 61 57 56 56 58 54 53 50 52 58 52 51 46 46 52 53 56 57 55 55 55 57 57
68 65 67 69 68 68 69 69 67 69 71 68 68 64 66 66 66 66 65 63 61 60 57 57 56 55 53 51 50 50 50 50 50 46 43 48 52 54 54 54 54 55 57
67 63 63 66 65 66 65 65 67 67 69 68 65 65 64 64 65 65 66 64 62 61 58 58 56 55 53 53 52 51 49 48 47 46 44 45 46 49 52 53 52 53 55